COSMOS 2432 (719)

Last updated on Wed Nov 20 2024 00:03:10 GMT+0000 (Coordinated Universal Time)

1 32276U 07052B 24324.24365156 -.00000057 00000+0 00000+0 0 9992 2 32276 65.8882 335.3318 0011193 310.0817 125.5936 2.13103141132834
UTC large
Height (km)
Speed (km/s)
/
Latitude / Longitude
Inclination (degrees)
Orbital Period (minutes)
Azimuth
Elevation
Range (km)
Doppler Factor

Next 0 passes for location: London (51.5072 / 0.1276)

Sorry there are no passes over London.